This demonstration page uses our WeatherBlox Daily Observations layout. Learn more.

Hourly Observations for December 8, 2017

Temp ( °F °C ) Dew Point ( °F °C ) Humidity (%) Winds ( mph kmh ) Pressure ( in mb ) Visibility ( mi km ) Precip ( " mm )
12:53 am 00:53 Clear 19 -7.2 15 -9.4 84 84 Calm 30.21 1023 10 16.0934 0 0
1:53 am 01:53 Clear 17 -8.3 13 -10.6 84 84 Calm 30.21 1023 10 16.0934 0 0
2:53 am 02:53 Clear 17 -8.3 14 -10 88 88 Calm 30.21 1023 10 16.0934 0 0
3:53 am 03:53 Clear 18 -7.8 15 -9.4 88 88 Calm 30.2 1023 10 16.0934 0 0
4:53 am 04:53 Clear 19 -7.2 16 -8.9 88 88 Calm 30.19 1022 10 16.0934 0 0
5:53 am 05:53 Clear 18 -7.8 15 -9.4 88 88 Calm 30.19 1022 10 16.0934 0 0
6:53 am 06:53 Clear 16 -8.9 13 -10.6 88 88 Calm 30.19 1023 10 16.0934 0 0
7:53 am 07:53 Sunny 15 -9.4 12 -11.1 88 88 Calm 30.19 1022 9 14.48406 0 0
8:53 am 08:53 Sunny 21 -6.1 18 -7.8 88 88 WSW 3 6 30.2 1023 10 16.0934 0 0
9:53 am 09:53 Sunny 23 -5 17 -8.3 78 78 W 7 11 30.21 1023 10 16.0934 0 0
10:53 am 10:53 Sunny 25 -3.9 14 -10 63 63 WSW 7 11 30.18 1022 10 16.0934 0 0
11:53 am 11:53 Sunny 28 -2.2 10 -12.2 47 47 VRB 7 11 30.14 1021 10 16.0934 0 0
12:53 pm 12:53 Sunny 29 -1.7 9 -12.8 43 43 WSW 7 11 30.13 1020 10 16.0934 0 0
1:53 pm 13:53 Sunny 31 -0.6 9 -12.8 40 40 SW 8 13 30.1 1019 10 16.0934 0 0
2:53 pm 14:53 Sunny 32 0 10 -12.2 40 40 SW 8 13 30.08 1019 10 16.0934 0 0
3:53 pm 15:53 Sunny 31 -0.6 8 -13.3 38 38 SW 5 7 30.06 1018 10 16.0934 0 0
4:53 pm 16:53 Sunny 31 -0.6 8 -13.3 38 38 SSW 5 7 30.06 1018 10 16.0934 0 0
5:53 pm 17:53 Clear 27 -2.8 11 -11.7 51 51 Calm 30.03 1017 10 16.0934 0 0
6:53 pm 18:53 Clear 27 -2.8 11 -11.7 51 51 SSW 3 6 30.04 1017 10 16.0934 0 0
7:53 pm 19:53 Clear 22 -5.6 14 -10 71 71 VRB 3 6 30.05 1018 10 16.0934 0 0
8:53 pm 20:53 Clear 25 -3.9 13 -10.6 60 60 WSW 3 6 30.04 1017 10 16.0934 0 0
9:53 pm 21:53 Clear 19 -7.2 14 -10 81 81 Calm 30.02 1017 10 16.0934 0 0
10:53 pm 22:53 Clear 19 -7.2 14 -10 81 81 Calm 30.01 1016 10 16.0934 0 0
11:53 pm 23:53 Clear 18 -7.8 14 -10 84 84 Calm 30.01 1016 10 16.0934 0 0

Powered by AerisWeather